TimeMSK,TemperatureF,Dew PointF,Humidity,Sea Level PressureIn,VisibilityMPH,Wind Direction,Wind SpeedMPH,Gust SpeedMPH,PrecipitationIn,Events,Conditions,WindDirDegrees,DateUTC
12:00 AM,42.8,39.2,87,29.89,-9999.0,ENE,6.7,-,N/A,,Clear,70,2013-02-10 20:00:00
1:00 AM,46,39,68,29.90,6,ENE,4.5,,,,,70,2013-02-10 21:00:00
1:00 AM,42.8,39.2,87,29.89,-9999.0,ENE,4.5,-,N/A,,Clear,70,2013-02-10 21:00:00
2:00 AM,41.0,37.4,87,29.89,-9999.0,East,4.5,-,N/A,,Clear,80,2013-02-10 22:00:00
3:00 AM,39.2,37.4,93,29.86,-9999.0,ENE,4.5,-,N/A,,Clear,60,2013-02-10 23:00:00
4:00 AM,44,37,68,29.87,6,ENE,4.5,,,,Clear,70,2013-02-11 00:00:00
4:00 AM,39.2,37.4,93,29.86,-9999.0,East,4.5,-,N/A,,Clear,90,2013-02-11 00:00:00
5:00 AM,39.2,37.4,93,29.86,-9999.0,Variable,2.2,-,N/A,,Clear,0,2013-02-11 01:00:00
6:00 AM,37.4,33.8,87,29.83,-9999.0,Variable,2.2,-,N/A,,Clear,0,2013-02-11 02:00:00
7:00 AM,44,36,66,29.83,6,NE,6.7,,,,Clear,50,2013-02-11 03:00:00
7:00 AM,37.4,35.6,93,29.83,-9999.0,NE,4.5,-,N/A,,Clear,50,2013-02-11 03:00:00
8:00 AM,41.0,37.4,87,29.83,-9999.0,ENE,6.7,-,N/A,,Clear,60,2013-02-11 04:00:00
8:30 AM,41.0,37.4,87,29.83,-9999.0,NE,6.7,-,N/A,,Clear,50,2013-02-11 04:30:00
9:00 AM,41.0,37.4,87,29.83,-9999.0,NE,11.2,-,N/A,,Clear,50,2013-02-11 05:00:00
9:30 AM,41.0,37.4,87,29.83,-9999.0,ENE,11.2,-,N/A,,Clear,60,2013-02-11 05:30:00
10:00 AM,45,37,65,29.83,6,ENE,8.9,,,,Clear,70,2013-02-11 06:00:00
10:00 AM,41.0,37.4,87,29.83,-9999.0,ENE,13.4,-,N/A,,Clear,60,2013-02-11 06:00:00
10:30 AM,42.8,39.2,87,29.83,-9999.0,NE,8.9,-,N/A,,Clear,40,2013-02-11 06:30:00
11:00 AM,46.4,39.2,76,29.80,-9999.0,ENE,8.9,-,N/A,,Clear,60,2013-02-11 07:00:00
11:30 AM,46.4,39.2,76,29.80,-9999.0,ENE,11.2,-,N/A,,Clear,70,2013-02-11 07:30:00
12:00 PM,50.0,39.2,66,29.80,-9999.0,East,11.2,-,N/A,,Clear,80,2013-02-11 08:00:00
12:30 PM,50.0,39.2,66,29.80,-9999.0,ENE,8.9,-,N/A,,Clear,70,2013-02-11 08:30:00
1:00 PM,57,38,36,29.80,6,ENE,6.7,,,,Clear,70,2013-02-11 09:00:00
1:00 PM,53.6,41.0,62,29.80,-9999.0,ENE,11.2,-,N/A,,Clear,70,2013-02-11 09:00:00
1:30 PM,55.4,39.2,54,29.77,-9999.0,ENE,13.4,-,N/A,,Clear,70,2013-02-11 09:30:00
2:00 PM,55.4,41.0,58,29.77,-9999.0,ENE,8.9,-,N/A,,Clear,60,2013-02-11 10:00:00
2:30 PM,55.4,41.0,58,29.77,-9999.0,NE,11.2,-,N/A,,Clear,50,2013-02-11 10:30:00
3:00 PM,57.2,41.0,55,29.77,-9999.0,NE,11.2,-,N/A,,Clear,50,2013-02-11 11:00:00
3:30 PM,55.4,39.2,54,29.77,-9999.0,NE,11.2,-,N/A,,Clear,50,2013-02-11 11:30:00
4:00 PM,55,44,56,29.77,6,SW,4.5,,,,Clear,230,2013-02-11 12:00:00
4:00 PM,55.4,39.2,54,29.77,-9999.0,ENE,11.2,-,N/A,,Clear,60,2013-02-11 12:00:00
4:30 PM,51.8,39.2,62,29.74,-9999.0,NE,13.4,-,N/A,,Clear,50,2013-02-11 12:30:00
5:00 PM,51.8,39.2,62,29.74,-9999.0,ENE,11.2,-,N/A,,Clear,60,2013-02-11 13:00:00
5:30 PM,51.8,39.2,62,29.77,-9999.0,ENE,8.9,-,N/A,,Clear,60,2013-02-11 13:30:00
6:00 PM,50.0,39.2,66,29.74,-9999.0,East,13.4,-,N/A,,Clear,80,2013-02-11 14:00:00
6:30 PM,48.2,37.4,66,29.74,-9999.0,East,13.4,-,N/A,,Clear,80,2013-02-11 14:30:00
7:00 PM,52,39,49,29.76,6,East,8.9,,,,Partly Cloudy,80,2013-02-11 15:00:00
7:00 PM,48.2,37.4,66,29.74,-9999.0,East,13.4,-,N/A,,Clear,80,2013-02-11 15:00:00
7:30 PM,48.2,37.4,66,29.74,-9999.0,East,13.4,-,N/A,,Clear,80,2013-02-11 15:30:00
8:00 PM,46.4,37.4,71,29.77,-9999.0,East,13.4,-,N/A,,Clear,80,2013-02-11 16:00:00
9:00 PM,46.4,37.4,71,29.77,-9999.0,East,4.5,-,N/A,,Clear,90,2013-02-11 17:00:00
10:00 PM,47,37,60,29.78,6,ENE,6.7,,,,Clear,70,2013-02-11 18:00:00
10:00 PM,44.6,37.4,76,29.77,-9999.0,ENE,6.7,-,N/A,,Clear,70,2013-02-11 18:00:00
11:00 PM,42.8,37.4,81,29.77,-9999.0,ENE,6.7,-,N/A,,Clear,70,2013-02-11 19:00:00